1484665201.23,54283,5.88,73374.0,-16.63,-46.07,-46.35,0,*6B
1484665202.49,54284,5.88,73374.0,-16.65,-46.15,-46.35,0,*69
1484665203.76,54285,5.88,73376.3,-16.65,-46.27,-46.75,0,*6D
1484665204.98,54286,5.88,73374.3,-16.63,-46.35,-46.55,0,*69
1484665206.22,54287,5.88,73372.5,-16.63,-46.35,-46.89,0,*69
1484665207.49,54288,5.88,73374.3,-16.65,-46.15,-46.55,0,*63
1484665208.73,54289,5.88,73372.8,-16.65,-46.35,-46.75,0,*62
1484665210.02,54290,5.88,73372.0,-16.65,-46.27,-46.69,0,*64
1484665211.29,54291,5.88,73374.0,-16.65,-46.27,-46.75,0,*68
1484665212.51,54292,5.88,73374.3,-16.63,-46.35,-46.75,0,*6E
1484665213.77,54293,5.88,73372.5,-16.63,-46.27,-46.69,0,*61
1484665215.07,54294,5.88,73372.0,-16.65,-46.07,-46.49,0,*60
1484665216.36,54295,5.88,73374.8,-16.65,-46.07,-46.49,0,*61
1484665217.57,54296,5.88,73378.5,-16.63,-45.95,-46.35,0,*67
1484665218.86,54297,5.88,73372.0,-16.65,-46.07,-46.49,0,*63
1484665220.1,54298,5.88,73374.3,-16.65,-45.95,-46.35,0,*6F
1484665221.34,54299,5.88,73372.8,-16.63,-45.95,-46.49,0,*63
1484665222.58,54300,5.88,73372.8,-16.63,-46.07,-46.35,0,*61
1484665223.83,54301,5.88,73372.5,-16.63,-46.01,-46.27,0,*65
1484665225.1,54302,5.88,73376.0,-16.65,-46.15,-46.55,0,*60
1484665226.37,54303,5.88,73376.5,-16.63,-46.15,-46.49,0,*6A
1484665227.64,54304,5.88,73380.3,-16.65,-46.27,-46.55,0,*67
1484665228.88,54305,5.88,73378.0,-16.65,-46.35,-46.75,0,*67
1484665230.14,54306,5.88,73374.5,-16.65,-45.87,-46.27,0,*69
1484665231.43,54307,5.88,73376.8,-16.65,-45.81,-46.15,0,*6F
1484665232.67,54308,5.88,73374.0,-16.63,-45.95,-46.15,0,*63
1484665233.91,54309,5.88,73378.8,-16.63,-45.67,-46.15,0,*6F
1484665235.15,54310,5.88,73376.8,-16.63,-45.87,-46.27,0,*68
1484665236.39,54311,5.88,73378.0,-16.63,-45.87,-46.15,0,*68
1484665237.65,54312,5.88,73372.8,-16.63,-45.81,-46.07,0,*6E
1484665238.91,54313,5.88,73372.8,-16.65,-45.87,-46.27,0,*6D
1484665240.17,54314,5.88,73372.5,-16.61,-45.87,-46.41,0,*6E
1484665241.38,54315,5.88,73374.5,-16.63,-45.87,-46.35,0,*6E
1484665242.62,54316,5.88,73374.5,-16.63,-46.07,-46.35,0,*66
1484665243.87,54317,5.88,73374.8,-16.63,-46.15,-46.35,0,*64
1484665245.08,54318,5.88,73378.0,-16.63,-45.95,-46.35,0,*60
1484665246.35,54319,5.88,73376.5,-16.63,-46.15,-46.49,0,*61
1484665247.63,54320,5.88,73376.3,-16.63,-46.15,-46.49,0,*6B
1484665248.89,54321,5.88,73372.5,-16.63,-45.81,-46.07,0,*6E
1484665250.13,54322,5.88,73374.0,-16.63,-45.95,-46.27,0,*6A
1484665251.37,54323,5.88,73376.8,-16.63,-45.87,-46.27,0,*68
1484665252.63,54324,5.88,73376.5,-16.61,-46.01,-46.27,0,*60
1484665253.93,54325,5.88,73374.5,-16.61,-46.07,-46.41,0,*67
1484665255.19,54326,5.88,73372.0,-16.61,-46.01,-46.27,0,*62
1484665256.46,54327,5.88,73374.0,-16.59,-46.07,-46.41,0,*6E
1484665257.71,54328,5.88,73370.3,-16.59,-46.01,-46.49,0,*6F
1484665258.95,54329,5.88,73370.5,-16.61,-46.01,-46.21,0,*6B
1484665260.22,54330,5.88,73374.3,-16.61,-46.01,-46.27,0,*65
1484665261.48,54331,5.88,73374.8,-16.61,-45.87,-46.41,0,*69
1484665262.75,54332,5.88,73372.8,-16.59,-45.81,-46.27,0,*67
1484665263.98,54333,5.88,73374.0,-16.59,-45.87,-46.41,0,*60
1484665265.25,54334,5.88,73372.5,-16.59,-46.07,-46.41,0,*6C
1484665266.52,54335,5.88,73378.8,-16.61,-46.01,-46.27,0,*60
1484665267.79,54336,5.88,73372.8,-16.59,-46.27,-46.49,0,*64
1484665269.09,54337,5.88,73374.3,-16.61,-46.07,-46.49,0,*6C
1484665270.35,54338,5.88,73374.8,-16.61,-45.81,-46.21,0,*60
1484665271.59,54339,5.81,73370.3,-16.59,-45.87,-46.27,0,*6A
1484665272.86,54340,5.88,73372.0,-16.61,-46.01,-46.07,0,*60
1484665274.1,54341,5.88,73374.5,-16.59,-45.87,-46.27,0,*65
1484665275.37,54342,5.81,73368.3,-16.61,-45.87,-46.07,0,*6F
1484665276.63,54343,5.88,73370.8,-16.61,-45.81,-46.21,0,*6C
1484665277.89,54344,5.88,73374.5,-16.61,-46.21,-46.49,0,*6C
1484665279.18,54345,5.88,73372.0,-16.61,-46.07,-46.41,0,*61
1484665280.43,54346,5.88,73370.3,-16.59,-46.01,-46.41,0,*6F
1484665281.7,54347,5.88,73368.5,-16.59,-46.27,-46.49,0,*62
1484665282.97,54348,5.88,73374.5,-16.59,-46.07,-46.27,0,*67
1484665284.24,54349,5.88,73374.3,-16.59,-46.07,-46.49,0,*6E
1484665285.54,54350,5.88,73374.8,-16.61,-46.07,-46.49,0,*6D
1484665286.77,54351,5.81,73370.3,-16.59,-46.21,-46.61,0,*69
1484665288.07,54352,5.88,73372.0,-16.61,-46.07,-46.49,0,*6F
1484665289.34,54353,5.88,73372.3,-16.61,-46.01,-46.27,0,*60
1484665290.6,54354,5.88,73372.0,-16.61,-45.87,-46.27,0,*6A
1484665291.86,54355,5.88,73370.8,-16.61,-45.81,-46.21,0,*6B
1484665293.12,54356,5.88,73368.8,-16.57,-45.95,-46.41,0,*6E
1484665294.41,54357,5.88,73368.8,-16.61,-46.07,-46.41,0,*62
1484665295.66,54358,5.88,73368.8,-16.59,-46.01,-46.41,0,*60
1484665296.95,54359,5.88,73368.3,-16.61,-46.07,-46.41,0,*6C
1484665298.22,54360,5.88,73374.3,-16.59,-46.07,-46.41,0,*6D
1484665299.51,54361,5.88,73372.0,-16.61,-46.07,-46.27,0,*67
1484665300.8,54362,5.88,73372.0,-16.61,-46.07,-46.49,0,*6C
1484665302.07,54363,5.88,73372.8,-16.59,-46.27,-46.61,0,*6E
1484665303.33,54364,5.88,73372.8,-16.61,-46.21,-46.61,0,*64
1484665304.62,54365,5.88,73372.8,-16.61,-46.07,-46.41,0,*63
1484665305.91,54366,5.88,73372.3,-16.61,-46.07,-46.49,0,*68
1484665307.21,54367,5.88,73372.3,-16.61,-46.07,-46.49,0,*69
1484665308.47,54368,5.88,73372.0,-16.61,-46.21,-46.69,0,*60
1484665309.76,54369,5.88,73370.5,-16.61,-46.27,-46.61,0,*6F
1484665311.02,54370,5.88,73370.3,-16.61,-46.21,-46.69,0,*69
1484665312.31,54371,5.88,73374.5,-16.61,-46.27,-46.61,0,*66
1484665313.58,54372,5.88,73372.3,-16.59,-46.27,-46.61,0,*6E
1484665314.84,54373,5.88,73370.8,-16.61,-46.21,-46.61,0,*62
1484665316.12,54374,5.88,73372.5,-16.61,-46.41,-46.69,0,*6B
1484665317.41,54375,5.88,73374.5,-16.61,-46.41,-46.69,0,*6A
1484665318.67,54376,5.88,73374.3,-16.61,-46.41,-46.83,0,*6D
1484665319.96,54377,5.88,73374.0,-16.61,-46.41,-46.61,0,*60
1484665321.25,54378,5.88,73376.3,-16.61,-46.27,-46.61,0,*6F
1484665322.51,54379,5.88,73370.0,-16.63,-46.27,-46.89,0,*6A
1484665323.78,54380,5.88,73372.5,-16.61,-46.41,-46.83,0,*64
1484665325.0,54381,5.88,73372.5,-16.63,-46.35,-46.75,0,*6D
1484665326.29,54382,5.88,73368.8,-16.65,-46.49,-46.89,0,*60
1484665327.53,54383,5.88,73368.8,-16.63,-46.49,-46.97,0,*68
1484665328.79,54384,5.88,73370.8,-16.65,-46.49,-46.75,0,*65
1484665330.06,54385,5.88,73368.0,-16.65,-46.49,-46.75,0,*64
1484665331.33,54386,5.88,73368.5,-16.65,-46.49,-46.75,0,*67
1484665332.59,54387,5.88,73366.0,-16.65,-46.35,-46.69,0,*60
1484665333.81,54388,5.88,73368.0,-16.63,-46.35,-46.75,0,*64
1484665335.07,54389,5.88,73368.0,-16.63,-46.49,-46.69,0,*63
1484665336.31,54390,5.88,73370.0,-16.65,-46.35,-46.75,0,*6B
1484665337.58,54391,5.88,73368.3,-16.65,-46.49,-46.97,0,*6D
1484665338.87,54392,5.88,73372.5,-16.65,-46.49,-46.89,0,*61
1484665340.16,54393,5.88,73368.8,-16.65,-46.49,-46.89,0,*60
1484665341.43,54394,5.88,73372.0,-16.65,-46.27,-46.55,0,*6E
1484665342.69,54395,5.88,73374.3,-16.65,-46.15,-46.55,0,*6E
1484665343.96,54396,5.88,73374.3,-16.65,-46.27,-46.55,0,*6C
1484665345.2,54397,5.88,73370.3,-16.67,-46.35,-46.61,0,*6B
1484665346.44,54398,5.88,73370.3,-16.67,-46.35,-46.61,0,*64
1484665347.7,54399,5.88,73372.8,-16.67,-46.41,-46.61,0,*66
1484665348.94,54400,5.88,73374.3,-16.67,-46.41,-46.75,0,*64
1484665350.21,54401,5.88,73374.3,-16.69,-46.35,-46.61,0,*6D
1484665351.47,54402,5.88,73372.3,-16.67,-46.41,-46.61,0,*63
1484665352.73,54403,5.88,73372.3,-16.65,-46.35,-46.69,0,*6B
1484665353.95,54404,5.88,73372.0,-16.67,-46.21,-46.55,0,*64
1484665355.19,54405,5.88,73368.5,-16.67,-46.21,-46.41,0,*60
1484665356.41,54406,5.88,73370.0,-16.67,-46.21,-46.55,0,*66
1484665357.65,54407,5.88,73370.8,-16.69,-46.21,-46.55,0,*69
1484665358.94,54408,5.88,73372.3,-16.65,-46.15,-46.27,0,*68
1484665360.16,54409,5.88,73374.8,-16.67,-46.01,-46.35,0,*6D
1484665361.4,54410,5.88,73370.8,-16.67,-46.41,-46.75,0,*65
1484665362.64,54411,5.88,73374.0,-16.67,-46.41,-46.75,0,*64
1484665363.88,54412,5.88,73374.3,-16.67,-46.41,-46.75,0,*67
1484665365.12,54413,5.88,73374.8,-16.67,-46.15,-46.55,0,*65
1484665366.36,54414,5.88,73372.8,-16.69,-46.21,-46.55,0,*6B
1484665367.6,54415,5.88,73372.3,-16.67,-46.21,-46.61,0,*63
1484665368.86,54416,5.88,73374.0,-16.69,-46.21,-46.41,0,*6C
1484665370.1,54417,5.88,73374.0,-16.67,-45.95,-46.41,0,*6F
1484665371.32,54418,5.88,73374.5,-16.67,-45.95,-46.21,0,*66
1484665372.59,54419,5.88,73374.0,-16.69,-45.87,-46.15,0,*6D
1484665373.8,54420,5.88,73370.5,-16.67,-45.95,-46.21,0,*6D
1484665375.07,54421,5.88,73374.3,-16.65,-45.95,-46.27,0,*68
1484665376.31,54422,5.88,73376.0,-16.67,-45.73,-46.01,0,*65
1484665377.52,54423,5.88,73376.3,-16.67,-45.67,-45.95,0,*6F
1484665378.77,54424,5.88,73372.8,-16.67,-46.01,-46.15,0,*60
1484665380.02,54425,5.88,73374.8,-16.67,-46.15,-46.55,0,*60
1484665381.28,54426,5.88,73372.8,-16.65,-45.87,-46.27,0,*6C
1484665382.55,54427,5.88,73374.5,-16.65,-46.27,-46.55,0,*61
1484665383.84,54428,5.88,73374.8,-16.65,-46.27,-46.49,0,*63
1484665385.14,54429,5.88,73374.5,-16.65,-46.07,-46.49,0,*60
1484665386.37,54430,5.88,73374.5,-16.67,-46.21,-46.61,0,*64
1484665387.62,54431,5.88,73374.3,-16.67,-46.15,-46.35,0,*63
1484665388.86,54432,5.88,73374.0,-16.67,-46.41,-46.75,0,*65
1484665390.1,54433,5.88,73372.5,-16.67,-46.41,-46.75,0,*64
1484665391.34,54434,5.88,73372.3,-16.67,-46.21,-46.41,0,*62
1484665392.58,54435,5.88,73372.8,-16.69,-46.01,-46.21,0,*69
1484665393.8,54436,5.88,73368.8,-16.67,-46.01,-46.21,0,*64
1484665395.02,54437,5.88,73370.5,-16.67,-46.01,-46.35,0,*60
1484665396.27,54438,5.88,73372.8,-16.69,-46.01,-46.35,0,*61
1484665397.54,54439,5.88,73374.0,-16.67,-46.15,-46.41,0,*68
1484665398.78,54440,5.88,73370.5,-16.69,-46.01,-46.55,0,*68
1484665400.0,54441,5.88,73374.3,-16.67,-46.21,-46.55,0,*65
1484665401.26,54442,5.88,73372.0,-16.69,-46.35,-46.61,0,*6A
1484665402.5,54443,5.88,73374.5,-16.69,-46.21,-46.55,0,*69
1484665403.77,54444,5.88,73370.3,-16.69,-46.41,-46.55,0,*68
1484665405.01,54445,5.88,73372.0,-16.67,-46.35,-46.61,0,*63
1484665406.25,54446,5.88,73372.8,-16.67,-46.41,-46.75,0,*66
1484665407.49,54447,5.88,73374.0,-16.67,-46.35,-46.61,0,*61
1484665408.7,54448,5.88,73370.5,-16.67,-46.21,-46.55,0,*6C
1484665409.97,54449,5.88,73370.0,-16.67,-45.73,-46.15,0,*6D
1484665411.2,54450,5.88,73370.5,-16.67,-45.73,-45.95,0,*6E
1484665412.42,54451,5.88,73370.0,-16.67,-45.67,-45.87,0,*69
1484665413.66,54452,5.88,73370.3,-16.67,-45.67,-45.73,0,*61
1484665414.87,54453,5.88,73372.0,-16.67,-45.53,-45.95,0,*6F
1484665416.12,54454,5.88,73374.0,-16.67,-45.73,-46.01,0,*64
1484665417.38,54455,5.88,73378.0,-16.65,-45.95,-46.15,0,*6A
1484665418.65,54456,5.88,73374.5,-16.65,-46.07,-46.35,0,*63
1484665419.89,54457,5.88,73374.3,-16.63,-46.15,-46.55,0,*61
1484665421.16,54458,5.88,73372.5,-16.65,-46.35,-46.69,0,*65
1484665422.4,54459,5.81,73374.8,-16.65,-46.35,-46.75,0,*69
1484665423.69,54460,5.88,73372.0,-16.65,-46.49,-46.69,0,*65
1484665424.95,54461,5.88,73374.0,-16.65,-46.35,-46.89,0,*61
1484665426.18,54462,5.88,73374.0,-16.67,-46.55,-46.83,0,*6C
1484665427.39,54463,5.88,73372.8,-16.67,-46.55,-46.97,0,*68
1484665428.61,54464,5.88,73378.0,-16.67,-46.55,-46.97,0,*6F
1484665429.83,54465,5.81,73374.8,-16.67,-46.55,-46.97,0,*6E
1484665431.09,54466,5.88,73376.5,-16.67,-46.61,-47.03,0,*66
1484665432.3,54467,5.88,73374.8,-16.67,-46.75,-46.97,0,*6E
1484665433.54,54468,5.88,73376.5,-16.69,-46.55,-46.75,0,*61
1484665434.78,54469,5.81,73370.5,-16.67,-46.41,-46.75,0,*6B
1484665436.06,54470,5.88,73370.3,-16.69,-46.41,-46.61,0,*68
1484665437.33,54471,5.88,73374.3,-16.69,-46.41,-46.83,0,*65
1484665438.6,54472,5.88,73372.8,-16.69,-46.61,-46.83,0,*64
1484665439.88,54473,5.88,73370.8,-16.69,-46.61,-47.03,0,*6C
1484665441.16,54474,5.81,73370.5,-16.69,-46.61,-47.03,0,*6B
1484665442.42,54475,5.88,73374.8,-16.69,-46.75,-47.03,0,*6F
1484665443.68,54476,5.88,73372.8,-16.69,-46.55,-47.03,0,*6E
1484665444.95,54477,5.88,73372.5,-16.73,-46.89,-47.09,0,*6F
1484665446.23,54478,5.88,73374.0,-16.73,-46.61,-47.03,0,*6C
1484665447.5,54479,5.88,73372.3,-16.75,-46.61,-46.89,0,*68
1484665448.78,54480,5.81,73368.5,-16.73,-46.61,-47.03,0,*6B
1484665450.06,54481,5.88,73368.8,-16.73,-46.27,-46.83,0,*61
1484665451.33,54482,5.88,73370.0,-16.73,-46.49,-46.83,0,*6A
1484665452.6,54483,5.88,73370.8,-16.73,-46.49,-46.83,0,*6B
1484665453.89,54484,5.88,73368.5,-16.73,-46.49,-46.89,0,*66
1484665455.14,54485,5.88,73370.0,-16.75,-46.49,-46.83,0,*6B
1484665456.41,54486,5.81,73370.3,-16.75,-46.49,-46.89,0,*62
1484665457.65,54487,5.81,73370.3,-16.75,-46.61,-47.09,0,*60
1484665458.92,54488,5.88,73368.5,-16.75,-46.61,-46.89,0,*66
1484665460.18,54489,5.88,73370.8,-16.75,-46.61,-47.03,0,*64
1484665461.45,54490,5.88,73370.3,-16.75,-46.61,-46.89,0,*6F
1484665462.71,54491,5.88,73368.5,-16.75,-46.61,-46.89,0,*6E
1484665463.97,54492,5.88,73368.8,-16.75,-46.61,-47.03,0,*6E
1484665465.21,54493,5.88,73368.5,-16.77,-46.75,-47.09,0,*62
1484665466.47,54494,5.88,73368.0,-16.77,-46.69,-47.17,0,*67
1484665467.71,54495,5.81,73366.5,-16.77,-46.75,-47.09,0,*64
1484665468.97,54496,5.88,73368.3,-16.77,-46.69,-47.09,0,*6A
1484665470.24,54497,5.88,73366.0,-16.79,-46.49,-46.89,0,*6E
1484665471.54,54498,5.81,73364.5,-16.77,-46.49,-46.69,0,*61
1484665472.84,54499,5.81,73366.8,-16.77,-46.15,-46.27,0,*63
1484665474.1,54500,5.88,73368.5,-16.77,-45.87,-46.07,0,*68
1484665475.35,54501,5.88,73370.3,-16.75,-45.95,-46.07,0,*68
1484665476.59,54502,5.81,73368.3,-16.75,-46.21,-46.41,0,*65
1484665477.86,54503,5.88,73370.5,-16.75,-46.07,-46.27,0,*60
1484665479.13,54504,5.88,73370.8,-16.75,-46.27,-46.41,0,*65
1484665480.41,54505,5.88,73372.5,-16.77,-46.35,-46.49,0,*6D
1484665481.66,54506,5.88,73372.0,-16.77,-46.35,-46.55,0,*63
1484665482.95,54507,5.88,73370.3,-16.77,-46.49,-46.69,0,*66
1484665484.19,54508,5.81,73370.3,-16.79,-46.55,-46.89,0,*64
1484665485.46,54509,5.88,73368.3,-16.77,-46.35,-46.69,0,*63
1484665486.74,54510,5.88,73370.3,-16.77,-46.27,-46.55,0,*67
1484665488.04,54511,5.81,73364.0,-16.77,-46.15,-46.49,0,*6A
1484665489.29,54512,5.88,73370.5,-16.77,-46.35,-46.55,0,*66
1484665490.58,54513,5.81,73366.5,-16.77,-46.27,-46.69,0,*6B
1484665491.86,54514,5.88,73368.0,-16.77,-46.35,-46.69,0,*6F
1484665493.13,54515,5.88,73368.5,-16.77,-46.27,-46.55,0,*62
1484665494.38,54516,5.88,73370.3,-16.79,-46.35,-46.49,0,*61
1484665495.65,54517,5.88,73368.0,-16.77,-46.35,-46.49,0,*6E
1484665496.88,54518,5.81,73368.8,-16.79,-46.35,-46.55,0,*62
1484665498.15,54519,5.88,73370.8,-16.77,-46.35,-46.69,0,*62
1484665499.44,54520,5.88,73370.8,-16.77,-46.49,-46.69,0,*63
1484665500.71,54521,5.81,73364.3,-16.77,-46.49,-46.75,0,*6F
1484665501.98,54522,5.81,73368.8,-16.79,-46.49,-46.89,0,*61
1484665503.2,54523,5.81,73370.5,-16.79,-46.55,-46.75,0,*6E
1484665504.45,54524,5.81,73370.0,-16.79,-46.55,-46.89,0,*6A
1484665505.68,54525,5.88,73372.5,-16.79,-46.69,-47.09,0,*6D
1484665506.9,54526,5.81,73370.3,-16.79,-46.55,-46.75,0,*6B
1484665508.15,54527,5.88,73372.5,-16.79,-46.49,-46.75,0,*67
1484665509.42,54528,5.88,73372.3,-16.79,-46.49,-46.49,0,*67
1484665510.69,54529,5.81,73368.8,-16.79,-46.49,-46.69,0,*64
1484665511.91,54530,5.81,73372.3,-16.79,-46.55,-46.75,0,*6C
1484665513.15,54531,5.81,73372.8,-16.79,-46.75,-46.89,0,*6C
1484665514.36,54532,5.81,73368.0,-16.79,-46.55,-46.97,0,*62
1484665515.58,54533,5.81,73370.3,-16.79,-46.55,-46.97,0,*63
1484665516.8,54534,5.81,73368.8,-16.83,-46.75,-46.97,0,*63
1484665518.04,54535,5.81,73372.0,-16.79,-46.69,-46.97,0,*6A
1484665519.31,54536,5.88,73374.8,-16.81,-46.61,-46.75,0,*6A
1484665520.58,54537,5.81,73374.0,-16.81,-46.61,-46.97,0,*67
1484665521.85,54538,5.81,73368.3,-16.81,-46.61,-46.83,0,*6D
1484665523.1,54539,5.81,73368.3,-16.83,-46.35,-46.61,0,*63
1484665524.37,54540,5.81,73372.8,-16.81,-46.35,-46.61,0,*6F
1484665525.64,54541,5.81,73374.0,-16.81,-46.41,-46.75,0,*68
1484665526.9,54542,5.81,73372.0,-16.81,-46.41,-46.75,0,*6B
1484665528.17,54543,5.88,73372.0,-16.81,-46.61,-46.83,0,*61
1484665529.45,54544,5.88,73372.8,-16.81,-46.61,-46.83,0,*66
1484665530.73,54545,5.88,73374.0,-16.81,-46.61,-47.03,0,*6E
1484665532.0,54546,5.88,73372.8,-16.83,-46.61,-47.03,0,*6F
1484665533.24,54547,5.81,73374.5,-16.81,-46.55,-46.97,0,*67
1484665534.47,54548,5.81,73374.8,-16.83,-46.55,-46.83,0,*6F
1484665535.72,54549,5.81,73372.5,-16.83,-46.61,-46.97,0,*6C
1484665536.94,54550,5.81,73372.3,-16.83,-46.75,-46.97,0,*61
1484665538.19,54551,5.88,73376.8,-16.85,-46.83,-47.23,0,*61
1484665539.43,54552,5.81,73374.3,-16.85,-46.83,-47.23,0,*62
1484665540.68,54553,5.81,73368.3,-16.85,-46.83,-47.23,0,*63
1484665541.95,54554,5.88,73374.5,-16.85,-46.89,-47.23,0,*6E
1484665543.16,54555,5.88,73374.5,-16.85,-46.83,-47.09,0,*6D
1484665544.41,54556,5.81,73368.8,-16.87,-46.83,-47.09,0,*6C
1484665545.65,54557,5.81,73370.8,-16.85,-46.83,-47.23,0,*67
1484665546.87,54558,5.81,73374.3,-16.85,-46.83,-47.09,0,*60
1484665548.08,54559,5.81,73370.8,-16.85,-46.83,-47.09,0,*61
1484665549.35,54560,5.81,73370.5,-16.87,-46.83,-47.23,0,*61
1484665550.63,54561,5.88,73372.0,-16.87,-46.83,-47.23,0,*60
1484665551.9,54562,5.81,73370.5,-16.87,-46.83,-47.23,0,*63
1484665553.17,54563,5.81,73372.0,-16.85,-46.89,-47.23,0,*6A
1484665554.42,54564,5.81,73374.0,-16.87,-46.83,-47.31,0,*66
1484665555.67,54565,5.81,73374.0,-16.89,-46.89,-47.31,0,*63
1484665556.89,54566,5.81,73368.8,-16.89,-46.83,-47.31,0,*6A
1484665558.14,54567,5.81,73368.8,-16.89,-46.83,-47.23,0,*68
1484665559.39,54568,5.81,73368.5,-16.89,-46.89,-47.31,0,*6E
1484665560.66,54569,5.81,73368.8,-16.89,-46.89,-47.23,0,*6C
1484665561.94,54570,5.81,73372.0,-16.89,-46.89,-47.23,0,*64
1484665563.19,54571,5.88,73370.5,-16.91,-46.97,-47.31,0,*60
1484665564.43,54572,5.81,73372.3,-16.91,-47.17,-47.57,0,*6A
1484665565.67,54573,5.81,73372.5,-16.91,-47.17,-47.51,0,*6D
1484665566.89,54574,5.88,73376.0,-16.89,-47.09,-47.51,0,*6C
1484665568.13,54575,5.81,73374.3,-16.95,-47.17,-47.57,0,*69
1484665569.4,54576,5.81,73372.8,-16.97,-47.03,-47.45,0,*6E
1484665570.69,54577,5.81,73374.0,-16.95,-47.03,-47.37,0,*68
1484665571.99,54578,5.81,73374.0,-16.95,-47.03,-47.45,0,*62
1484665573.26,54579,5.88,73374.8,-16.95,-46.97,-47.45,0,*6F
1484665574.56,54580,5.81,73372.8,-16.95,-47.03,-47.45,0,*65
1484665575.8,54581,5.81,73374.0,-16.97,-47.03,-47.57,0,*65
1484665577.04,54582,5.81,73372.5,-16.97,-47.03,-47.57,0,*66
1484665578.3,54583,5.81,73374.0,-16.95,-47.03,-47.57,0,*65
1484665579.54,54584,5.81,73368.5,-16.95,-47.17,-47.57,0,*67
1484665580.81,54585,5.88,73376.3,-16.97,-47.03,-47.37,0,*67
1484665582.03,54586,5.81,73374.0,-16.97,-46.83,-47.17,0,*6F
1484665583.26,54587,5.81,73368.3,-16.97,-46.75,-47.03,0,*62
1484665584.48,54588,5.81,73370.0,-16.97,-46.83,-47.17,0,*61
1484665585.75,54589,5.81,73370.0,-16.97,-47.03,-47.45,0,*6E
1484665587.05,54590,5.81,73368.5,-16.99,-47.03,-47.45,0,*68
1484665588.33,54591,5.88,73370.8,-16.99,-46.97,-47.37,0,*60
1484665589.62,54592,5.81,73364.0,-16.99,-46.61,-47.03,0,*6D
1484665590.89,54593,5.88,73368.8,-17.01,-47.03,-47.45,0,*6B
1484665592.19,54594,5.81,73366.8,-16.99,-47.03,-47.45,0,*6C
1484665593.47,54595,5.88,73372.0,-17.01,-46.89,-47.23,0,*6E
1484665594.74,54596,5.81,73368.5,-17.01,-46.61,-46.89,0,*6A
1484665596.03,54597,5.88,73370.3,-16.99,-46.61,-47.03,0,*68
1484665597.29,54598,5.88,73370.8,-17.01,-46.69,-47.03,0,*6F
1484665598.53,54599,5.88,73372.5,-17.01,-46.69,-47.09,0,*64
1484665599.78,54600,5.81,73368.0,-17.01,-46.89,-47.31,0,*62
1484665601.06,54601,5.81,73372.5,-17.03,-46.89,-47.31,0,*61
1484665602.33,54602,5.81,73370.0,-17.03,-47.03,-47.31,0,*61
1484665603.62,54603,5.81,73368.8,-17.03,-47.03,-47.23,0,*63
1484665604.92,54604,5.81,73368.8,-17.03,-47.03,-47.23,0,*64
1484665606.16,54605,5.81,73368.8,-17.05,-46.89,-47.17,0,*67
1484665607.41,54606,5.88,73372.5,-17.03,-46.83,-47.09,0,*67
1484665608.68,54607,5.81,73368.3,-17.03,-46.89,-47.09,0,*6C
1484665609.93,54608,5.81,73368.8,-17.03,-46.83,-47.09,0,*69
1484665611.22,54609,5.81,73368.0,-17.03,-46.61,-46.89,0,*6D
1484665612.44,54610,5.81,73366.5,-17.05,-46.75,-47.09,0,*6F
1484665613.71,54611,5.88,73368.3,-17.03,-46.61,-46.83,0,*6E
1484665614.93,54612,5.81,73366.3,-17.05,-46.55,-46.97,0,*69
1484665616.17,54613,5.81,73368.3,-17.05,-46.55,-46.89,0,*67
1484665617.39,54614,5.81,73364.5,-17.05,-46.75,-47.09,0,*6B
1484665618.6,54615,5.81,73366.0,-17.05,-46.75,-46.97,0,*6C
1484665619.82,54616,5.81,73370.5,-17.05,-46.75,-46.97,0,*6F
1484665621.06,54617,5.81,73370.5,-17.05,-46.69,-46.97,0,*63
1484665622.3,54618,5.81,73368.5,-17.05,-46.69,-47.09,0,*6A
1484665623.55,54619,5.81,73370.0,-17.05,-46.89,-47.31,0,*6E
1484665624.79,54620,5.81,73368.5,-17.07,-46.75,-47.09,0,*6E
1484665626.03,54621,5.81,73364.8,-17.09,-46.89,-47.17,0,*6D
1484665627.28,54622,5.81,73370.8,-17.07,-46.55,-46.97,0,*68
1484665628.57,54623,5.81,73368.3,-17.07,-46.41,-46.89,0,*63
1484665629.83,54624,5.81,73366.0,-17.09,-46.61,-47.03,0,*6B
1484665631.05,54625,5.81,73370.8,-17.05,-46.55,-46.97,0,*6D
1484665632.34,54626,5.81,73370.5,-17.07,-46.49,-47.03,0,*6D
1484665633.61,54627,5.81,73368.3,-17.07,-46.69,-47.09,0,*64
1484665634.85,54628,5.81,73364.8,-17.09,-46.75,-47.03,0,*62
1484665636.07,54629,5.81,73370.0,-17.09,-46.55,-46.83,0,*68
1484665637.32,54630,5.81,73366.0,-17.07,-46.55,-46.97,0,*6B
1484665638.59,54631,5.81,73368.3,-17.07,-46.69,-46.97,0,*65
1484665639.85,54632,5.81,73364.5,-17.09,-46.61,-47.03,0,*6C
1484665641.06,54633,5.81,73364.8,-17.09,-46.75,-47.17,0,*6D
1484665642.32,54634,5.88,73368.5,-17.09,-46.61,-47.03,0,*6A
1484665643.62,54635,5.81,73364.0,-17.07,-46.49,-46.89,0,*6C
1484665644.85,54636,5.81,73368.0,-17.09,-46.55,-46.83,0,*66
1484665646.09,54637,5.81,73370.0,-17.09,-46.61,-46.97,0,*65
1484665647.36,54638,5.88,73370.3,-17.11,-46.49,-46.75,0,*65
1484665648.64,54639,5.81,73366.0,-17.11,-46.49,-46.83,0,*6D
1484665649.89,54640,5.81,73364.3,-17.09,-46.49,-46.83,0,*6A
1484665651.13,54641,5.81,73362.8,-17.09,-46.61,-46.97,0,*64
1484665652.41,54642,5.81,73366.0,-17.11,-46.49,-46.83,0,*61
1484665653.66,54643,5.88,73370.3,-17.11,-46.35,-46.83,0,*6B
1484665654.93,54644,5.81,73366.3,-17.11,-46.49,-46.75,0,*6E
1484665656.2,54645,5.81,73366.0,-17.11,-46.15,-46.55,0,*64
1484665657.47,54646,5.81,73366.8,-17.11,-46.27,-46.75,0,*64
1484665658.77,54647,5.88,73368.3,-17.11,-46.27,-46.61,0,*60
1484665660.02,54648,5.81,73368.3,-17.11,-46.35,-46.75,0,*69
1484665661.29,54649,5.88,73374.3,-17.11,-46.07,-46.55,0,*6B
1484665662.58,54650,5.81,73370.5,-17.11,-46.27,-46.61,0,*66
1484665663.81,54651,5.81,73368.0,-17.13,-46.35,-46.83,0,*6A
1484665665.08,54652,5.81,73368.0,-17.11,-46.15,-46.55,0,*62
1484665666.33,54653,5.81,73366.8,-17.11,-46.35,-46.55,0,*61
1484665667.6,54654,5.81,73370.8,-17.11,-46.27,-46.55,0,*65
1484665668.88,54655,5.81,73370.5,-17.11,-46.15,-46.55,0,*65
1484665670.15,54656,5.81,73370.8,-17.11,-46.49,-46.75,0,*6D
1484665671.41,54657,5.81,73366.8,-17.13,-46.41,-46.69,0,*6B
1484665672.69,54658,5.81,73368.0,-17.11,-46.27,-46.55,0,*69
1484665673.96,54659,5.81,73368.0,-17.11,-46.27,-46.55,0,*68
1484665675.2,54660,5.81,73368.8,-17.13,-46.21,-46.61,0,*61
1484665676.42,54661,5.81,73370.5,-17.13,-46.55,-46.83,0,*6F
1484665677.72,54662,5.81,73370.0,-17.11,-46.27,-46.61,0,*67
1484665679.01,54663,5.81,73368.5,-17.11,-46.49,-46.61,0,*6E
1484665680.28,54664,5.81,73370.8,-17.11,-46.35,-46.61,0,*62
1484665681.57,54665,5.81,73366.5,-17.11,-46.27,-46.61,0,*60
1484665682.8,54666,5.81,73368.5,-17.13,-46.35,-46.83,0,*6E
1484665684.05,54667,5.81,73370.0,-17.13,-46.61,-46.83,0,*6E
1484665685.3,54668,5.81,73368.3,-17.13,-46.61,-46.83,0,*61
1484665686.54,54669,5.81,73368.8,-17.13,-46.35,-46.61,0,*6D
1484665687.81,54670,5.81,73366.3,-17.13,-46.61,-46.89,0,*62
1484665689.06,54671,5.81,73370.3,-17.13,-46.35,-46.61,0,*64
1484665690.32,54672,5.81,73368.8,-17.13,-46.41,-46.61,0,*64
1484665691.58,54673,5.81,73368.0,-17.13,-46.41,-46.61,0,*65
1484665692.82,54674,5.81,73368.5,-17.13,-46.55,-46.89,0,*61
1484665694.07,54675,5.81,73364.3,-17.13,-46.61,-46.83,0,*6D
1484665695.36,54676,5.81,73370.0,-17.17,-46.61,-46.89,0,*60
1484665696.63,54677,5.81,73368.3,-17.17,-46.61,-46.83,0,*6B
1484665697.88,54678,5.81,73370.3,-17.17,-46.55,-46.83,0,*63
1484665699.13,54679,5.81,73368.3,-17.17,-46.55,-46.83,0,*62
1484665700.37,54680,5.81,73368.3,-17.17,-46.83,-47.09,0,*6C
1484665701.66,54681,5.81,73370.5,-17.17,-46.89,-47.03,0,*6D
1484665702.95,54682,5.81,73368.8,-17.17,-46.69,-46.89,0,*63